Regional Weather Roundup
Issued by NWS New Orleans/Baton Rouge, LA

Home | Current Version | Previous Version | Text Only | Print | Product List | Glossary Off
Versions: 1 2 3 4 5 6 7 8 9 10 11 12 13 14 15 16 17 18 19 20 21 22 23 24 25 26 27 28 29 30 31 32 33 34 35 36 37 38 39 40 41 42 43 44 45 46 47 48 49 50

196
ASUS44 KLIX 311910
RWRLIX
NEW ORLEANS REGIONAL WEATHER ROUNDUP
NATIONAL WEATHER SERVICE NEW ORLEANS LA
100 PM CST SAT JAN 31 2015

NOTE: "FAIR" INDICATES FEW OR NO CLOUDS BELOW 12,000 FEET WITH NO
      SIGNIFICANT WEATHER AND/OR OBSTRUCTIONS TO VISIBILITY.
      SKY/WX - SKY CONDITION AND SIGNIFICANT WEATHER.
      TMP - AIR TEMPERATURE.     DP    - DEWPOINT TEMPERATURE.
      RH  - RELATIVE HUMIDITY.   PRES  - PRESSURE.
      HI  - HEAT INDEX.          WCI   - WIND CHILL INDEX.

*  THESE STATIONS ARE NOT NWS OR FAA STATIONS AND ARE NOT UNDER
   NWS QUALITY CONTROL.

LAZ038-040-048-061>063-065>067-069-312000-
SOUTHEAST LOUISIANA

CITY           SKY/WX    TMP DP  RH WIND       PRES   REMARKS
N.O. AUDUBON     N/A     61  50  65 MISG        N/A
N.O. INTL ARPT PTSUNNY   61  46  57 E9        30.24F
N.O. LAKEFRONT MOSUNNY   60  46  59 E13       30.26F
N.O. DOWNTOWN* NOT AVBL
SLIDELL        MOSUNNY   62  45  53 SE9       30.25F
BATON ROUGE    PTSUNNY   61  42  49 SE12      30.23F
BOOTHVILLE     PTSUNNY   65  51  60 E12       30.24F
BELLE CHASSE   PTSUNNY   62  47  57 E16       30.23F
BOGALUSA*        N/A     60  28  29 SE5       30.28F
GALLIANO*      CLOUDY    66  52  59 MISG      30.23F
NEW ROADS*       N/A     58  40  50 SE8       30.23F
GONZALES*        N/A     60  45  59 SE5       30.22F
HAMMOND*       MOSUNNY   64  43  45 SE13G20   30.25F
HOUMA*         SUNNY     64  50  59 NE17      30.22F
PORT FOURCHON* CLEAR     66  54  63 E13G20    30.24F

$$

MSZ070-080>082-312000-
SOUTHERN MISSISSIPPI

CITY           SKY/WX    TMP DP  RH WIND       PRES   REMARKS
MCCOMB         SUNNY     59  28  30 S8        30.24F
GULFPORT       SUNNY     59  43  55 E20       30.26F
BILOXI         SUNNY     60  43  52 E16       30.26F
PASCAGOULA     SUNNY     60  41  49 SE9       30.27F
STENNIS ARPT*  SUNNY     61  41  48 E13G18    30.27F

$$

COASTAL OBSERVATIONS
LAKE AND NEARSHORE STATIONS

STATION/POSITION TIME  TEMP    WIND        PRES    WAVE
                       AIR SEA DIR/SP/G            HT/PER
                 (UTC) (F)     (DEG/KT/KT) (MB)    (FT/S)
PASCAGOULA       1900   58      90/ 11/ 14 1024.9
WAVELAND YACHT   1900   55     120/ 14/ 17 1024.0
GRAND ISLE       1900   65 60  100/  9/ 14 1023.9
SOUTHWEST PASS   1900   67 46  110/ 18/ 20 1023.5
NEW CANAL        1900   60 56  110/  3/ 10 1024.7
SHELL BEACH      1900   56 56   70/ 14/ 16 1024.3

OFFSHORE STATIONS

STATION/POSITION TIME  TEMP    WIND        PRES    WAVE
                       AIR SEA DIR/SP/G            HT/PER
                 (UTC) (F)     (DEG/KT/KT) (MB)    (FT/S)
64 S DAUPHIN ISL 1844   61 69  100/ 14/ 19 1024.4    4/ 6

$$




USA.gov is the U.S. government's official web portal to all federal, state and local government web resources and services.